Вернуться в каталог

CZ-6A DEB

АктивенPO
NORAD 60820·DEBRIS·🇨🇳 China

Запущен Aug 6, 2024 с Taiyuan Satellite Launch Center

Loading…

Ближайшие Пролёты (ближайшие 24 часа)

TLE

СвежийSource: Space-Track

Эпоха: Sep 14, 2026, 10:58 UTC

1 60820U 24140GX  26257.45697592  .00000917  00000-0  38646-3 0  9993
2 60820  88.9877 263.3124 0029098 251.5450 108.2579 14.24695212108430

Отслеживайте CZ-6A DEB в реальном времени с AllMySat

Download on the App Store